{"data":{"norad_id":65722,"intl_designator":"2025-214L","name":"GEESAT-6 10","alt_names":[],"object_type":"PAYLOAD","status":"ACTIVE","operator":null,"country":"PRC","launch_date":"2025-09-24","launch_site_code":"YSLA","launch_vehicle":null,"mission":null,"orbit_class":"UNKNOWN","rcs_meters":null,"size_class":null,"mass_kg":null,"dimensions":null,"purposes":[],"wikipedia_slug":null,"has_3d_model":false,"image_url":null,"decayed_at":null,"tle_current":{"epoch":"2026-09-20T10:39:42.321312Z","epoch_age_seconds":154524,"freshness":"FRESH","line1":"1 65722U 25214L   26263.44423983  .00000965  00000+0  14314-3 0  9997","line2":"2 65722  49.9895 227.3072 0011571 242.5492 117.4270 14.83584945 53645","mean_motion":14.83584945,"eccentricity":0.0011571,"inclination_deg":49.9895,"raan_deg":227.3072,"arg_perigee_deg":242.5492,"mean_anomaly_deg":117.427,"bstar":0.00014314,"rev_number":5364,"period_min":97.062187430056,"perigee_km":609.93573229366,"apogee_km":626.12626427529,"semimajor_km":6996.1679982845,"source":"CELESTRAK","updated_at":"2026-09-21T09:00:15.524326Z"}}}